sat.trackr.live / text

‹ back to catalog

STARLINK-32010

NORAD 60279 · 2024-132B

PAYLOAD ACTIVE UNKNOWN

§ Identity

Operator
Country
US
Launch date
2024-07-28
Launch site
AFETR
Launch vehicle
Mass (kg)
RCS (m²)

Purposes: comms

External: N2YO · Heavens-Above · Gunter

§ Orbital elements

Epoch: 2026-05-25T03:18:43.962048Z

Period
94.01 min
Inclination
53.1620°
Eccentricity
0.0001347
Mean motion
15.31698743 rev/d
Perigee alt
469.8 km
Apogee alt
471.7 km
Semi-major
6,848.9 km
B*
1.1226e-5
RAAN
57.4343°
Arg perigee
90.1201°
Mean anomaly
269.9955°
Rev number
10,326

§ Raw data

STARLINK-320101 60279U 24132B   26145.13800882 -.00000017  00000+0  11226-4 0  99982 60279  53.1620  57.4343 0001347  90.1201 269.9955 15.31698743103261

JSON: /api/v1/satellites/60279 · /tle

For live sub-satellite position, see the globe view (requires WebGL).

§ Visibility from observer

Set your observer location to see the next 7 days of passes ≥ 10°. The values pass through the URL so the page stays shareable.

No JS? Fill the form by hand. The geolocation button needs JavaScript.